Time,TemperatureF,DewpointF,PressureIn,WindDirection,WindDirectionDegrees,WindSpeedMPH,WindSpeedGustMPH,Humidity,HourlyPrecipIn,Conditions,Clouds,dailyrainin,SoftwareType,DateUTC
2013-08-17 00:02:00,51.9,46.9,29.50,West,267,7.0,7.0,83,0.00,,,0.00,Wunderground v.1.15,2013-08-17 08:02:00,
2013-08-17 00:08:00,52.1,46.8,29.50,West,268,6.0,7.0,82,0.00,,,0.00,Wunderground v.1.15,2013-08-17 08:08:00,
2013-08-17 00:14:00,51.9,46.9,29.50,West,266,6.0,9.0,83,0.00,,,0.00,Wunderground v.1.15,2013-08-17 08:14:00,
2013-08-17 00:19:00,51.8,46.8,29.50,West,264,7.0,9.0,83,0.00,,,0.00,Wunderground v.1.15,2013-08-17 08:19:00,
2013-08-17 00:24:00,52.1,46.8,29.50,WSW,258,7.0,9.0,82,0.00,,,0.00,Wunderground v.1.15,2013-08-17 08:24:00,
2013-08-17 00:30:00,52.3,47.0,29.50,West,277,7.0,10.0,82,0.00,,,0.00,Wunderground v.1.15,2013-08-17 08:30:00,
2013-08-17 00:36:00,52.4,46.7,29.50,West,261,7.0,10.0,81,0.00,,,0.00,Wunderground v.1.15,2013-08-17 08:36:00,
2013-08-17 00:42:00,52.4,46.7,29.50,WSW,252,8.0,11.0,81,0.00,,,0.00,Wunderground v.1.15,2013-08-17 08:42:00,
2013-08-17 00:48:00,52.4,46.7,29.50,West,264,9.0,11.0,81,0.00,,,0.00,Wunderground v.1.15,2013-08-17 08:48:00,
2013-08-17 00:54:00,52.4,46.7,29.50,West,277,8.0,10.0,81,0.00,,,0.00,Wunderground v.1.15,2013-08-17 08:54:00,
2013-08-17 01:00:00,52.2,46.5,29.50,West,270,8.0,9.0,81,0.00,,,0.00,Wunderground v.1.15,2013-08-17 09:00:00,
2013-08-17 01:05:00,52.1,46.4,29.50,West,274,8.0,9.0,81,0.00,,,0.00,Wunderground v.1.15,2013-08-17 09:05:00,
2013-08-17 01:11:00,52.2,46.5,29.49,West,259,8.0,8.0,81,0.00,,,0.00,Wunderground v.1.15,2013-08-17 09:11:00,
2013-08-17 01:17:00,52.0,46.3,29.50,West,278,7.0,9.0,81,0.00,,,0.00,Wunderground v.1.15,2013-08-17 09:17:00,
2013-08-17 01:23:00,51.8,46.5,29.49,West,262,8.0,10.0,82,0.00,,,0.00,Wunderground v.1.15,2013-08-17 09:23:00,
2013-08-17 01:28:00,52.0,46.3,29.49,West,262,9.0,10.0,81,0.00,,,0.00,Wunderground v.1.15,2013-08-17 09:28:00,
2013-08-17 01:34:00,52.1,46.4,29.49,West,264,8.0,9.0,81,0.00,,,0.00,Wunderground v.1.15,2013-08-17 09:34:00,
2013-08-17 01:40:00,52.0,46.3,29.49,West,264,8.0,8.0,81,0.00,,,0.00,Wunderground v.1.15,2013-08-17 09:40:00,
2013-08-17 01:46:00,52.0,46.3,29.49,WSW,248,9.0,10.0,81,0.00,,,0.00,Wunderground v.1.15,2013-08-17 09:46:00,
2013-08-17 01:52:00,52.0,46.3,29.49,West,269,8.0,9.0,81,0.00,,,0.00,Wunderground v.1.15,2013-08-17 09:52:00,
2013-08-17 01:58:00,52.2,46.5,29.49,West,268,9.0,11.0,81,0.00,,,0.00,Wunderground v.1.15,2013-08-17 09:58:00,
2013-08-17 02:04:00,52.5,46.5,29.49,West,271,8.0,9.0,80,0.00,,,0.00,Wunderground v.1.15,2013-08-17 10:04:00,
2013-08-17 02:10:00,52.5,46.2,29.49,West,271,7.0,10.0,79,0.00,,,0.00,Wunderground v.1.15,2013-08-17 10:10:00,
2013-08-17 02:15:00,52.8,46.1,29.48,West,273,8.0,10.0,78,0.00,,,0.00,Wunderground v.1.15,2013-08-17 10:15:00,
2013-08-17 02:21:00,53.1,46.1,29.48,West,271,7.0,8.0,77,0.00,,,0.00,Wunderground v.1.15,2013-08-17 10:21:00,
2013-08-17 02:27:00,53.0,46.3,29.48,West,262,6.0,8.0,78,0.00,,,0.00,Wunderground v.1.15,2013-08-17 10:27:00,
2013-08-17 02:33:00,52.8,46.1,29.48,West,264,6.0,7.0,78,0.00,,,0.00,Wunderground v.1.15,2013-08-17 10:33:00,
2013-08-17 02:39:00,53.0,46.0,29.48,WSW,257,6.0,8.0,77,0.00,,,0.00,Wunderground v.1.15,2013-08-17 10:39:00,
2013-08-17 02:45:00,53.2,46.2,29.48,WSW,255,6.0,8.0,77,0.00,,,0.00,Wunderground v.1.15,2013-08-17 10:45:00,
2013-08-17 02:51:00,53.3,45.9,29.48,West,259,5.0,6.0,76,0.00,,,0.00,Wunderground v.1.15,2013-08-17 10:51:00,
2013-08-17 02:56:00,53.4,46.0,29.48,West,259,4.0,6.0,76,0.00,,,0.00,Wunderground v.1.15,2013-08-17 10:56:00,
2013-08-17 03:01:00,53.3,45.9,29.48,West,261,5.0,7.0,76,0.00,,,0.00,Wunderground v.1.15,2013-08-17 11:01:00,
2013-08-17 03:07:00,53.4,46.0,29.48,WSW,253,6.0,7.0,76,0.00,,,0.00,Wunderground v.1.15,2013-08-17 11:07:00,
2013-08-17 03:13:00,53.3,45.9,29.48,West,261,6.0,8.0,76,0.00,,,0.00,Wunderground v.1.15,2013-08-17 11:13:00,
2013-08-17 03:19:00,53.2,46.2,29.47,WNW,297,6.0,8.0,77,0.00,,,0.00,Wunderground v.1.15,2013-08-17 11:19:00,
2013-08-17 03:24:00,53.4,46.4,29.47,WSW,251,6.0,8.0,77,0.00,,,0.00,Wunderground v.1.15,2013-08-17 11:24:00,
2013-08-17 03:30:00,53.3,46.3,29.47,WSW,257,7.0,8.0,77,0.00,,,0.00,Wunderground v.1.15,2013-08-17 11:30:00,
2013-08-17 03:36:00,53.4,46.4,29.47,West,261,8.0,9.0,77,0.00,,,0.00,Wunderground v.1.15,2013-08-17 11:36:00,
2013-08-17 03:41:00,53.5,46.1,29.47,West,271,8.0,8.0,76,0.00,,,0.00,Wunderground v.1.15,2013-08-17 11:41:00,
2013-08-17 03:47:00,53.4,46.4,29.47,WSW,247,7.0,9.0,77,0.00,,,0.00,Wunderground v.1.15,2013-08-17 11:47:00,
2013-08-17 03:53:00,53.4,46.0,29.47,West,265,7.0,10.0,76,0.00,,,0.00,Wunderground v.1.15,2013-08-17 11:53:00,
2013-08-17 03:59:00,53.5,46.1,29.47,West,262,8.0,10.0,76,0.00,,,0.00,Wunderground v.1.15,2013-08-17 11:59:00,
2013-08-17 04:04:00,53.4,46.0,29.47,West,273,8.0,8.0,76,0.00,,,0.00,Wunderground v.1.15,2013-08-17 12:04:00,
2013-08-17 04:10:00,53.2,46.2,29.47,WSW,251,8.0,8.0,77,0.00,,,0.00,Wunderground v.1.15,2013-08-17 12:10:00,
2013-08-17 04:16:00,52.9,46.2,29.46,West,266,8.0,11.0,78,0.00,,,0.00,Wunderground v.1.15,2013-08-17 12:16:00,
2013-08-17 04:17:00,52.9,46.2,29.46,WSW,247,9.0,11.0,78,0.00,,,0.00,Wunderground v.1.15,2013-08-17 12:17:00,
2013-08-17 04:23:00,52.8,46.1,29.46,WNW,290,9.0,9.0,78,0.00,,,0.00,Wunderground v.1.15,2013-08-17 12:23:00,
2013-08-17 04:28:00,52.9,46.6,29.46,WNW,288,8.0,9.0,79,0.00,,,0.00,Wunderground v.1.15,2013-08-17 12:28:00,
2013-08-17 04:34:00,52.7,46.4,29.46,West,279,7.0,8.0,79,0.00,,,0.00,Wunderground v.1.15,2013-08-17 12:34:00,
2013-08-17 04:40:00,52.6,46.3,29.46,West,281,6.0,6.0,79,0.00,,,0.00,Wunderground v.1.15,2013-08-17 12:40:00,
2013-08-17 04:45:00,52.6,46.6,29.46,West,279,7.0,9.0,80,0.00,,,0.00,Wunderground v.1.15,2013-08-17 12:45:00,
2013-08-17 04:51:00,52.6,46.6,29.46,West,278,9.0,12.0,80,0.00,,,0.00,Wunderground v.1.15,2013-08-17 12:51:00,
2013-08-17 04:57:00,52.7,46.4,29.46,WNW,287,8.0,12.0,79,0.00,,,0.00,Wunderground v.1.15,2013-08-17 12:57:00,
2013-08-17 05:03:00,52.8,46.5,29.46,WNW,295,8.0,9.0,79,0.00,,,0.00,Wunderground v.1.15,2013-08-17 13:03:00,
2013-08-17 05:08:00,52.7,46.4,29.46,West,268,8.0,9.0,79,0.00,,,0.00,Wunderground v.1.15,2013-08-17 13:08:00,
2013-08-17 05:14:00,52.6,46.6,29.46,WNW,285,8.0,10.0,80,0.00,,,0.00,Wunderground v.1.15,2013-08-17 13:14:00,
2013-08-17 05:20:00,52.6,46.6,29.46,West,263,8.0,8.0,80,0.00,,,0.00,Wunderground v.1.15,2013-08-17 13:20:00,
2013-08-17 05:26:00,52.8,46.5,29.46,West,281,8.0,10.0,79,0.00,,,0.00,Wunderground v.1.15,2013-08-17 13:26:00,
2013-08-17 05:31:00,52.7,46.4,29.46,West,278,8.0,8.0,79,0.00,,,0.00,Wunderground v.1.15,2013-08-17 13:31:00,
2013-08-17 05:37:00,52.6,46.6,29.46,West,277,8.0,9.0,80,0.00,,,0.00,Wunderground v.1.15,2013-08-17 13:37:00,
2013-08-17 05:43:00,52.5,46.5,29.46,West,266,7.0,10.0,80,0.00,,,0.00,Wunderground v.1.15,2013-08-17 13:43:00,
2013-08-17 05:49:00,52.5,46.5,29.45,West,274,8.0,10.0,80,0.00,,,0.00,Wunderground v.1.15,2013-08-17 13:49:00,
2013-08-17 05:55:00,52.6,46.6,29.46,WNW,285,8.0,9.0,80,0.00,,,0.00,Wunderground v.1.15,2013-08-17 13:55:00,
2013-08-17 06:01:00,52.6,46.6,29.46,WNW,282,8.0,14.0,80,0.00,,,0.00,Wunderground v.1.15,2013-08-17 14:01:00,
2013-08-17 06:07:00,52.6,46.6,29.46,West,276,7.0,14.0,80,0.00,,,0.00,Wunderground v.1.15,2013-08-17 14:07:00,
2013-08-17 06:12:00,52.7,46.7,29.46,WNW,288,6.0,14.0,80,0.00,,,0.00,Wunderground v.1.15,2013-08-17 14:12:00,
2013-08-17 06:18:00,52.8,46.5,29.46,West,274,7.0,14.0,79,0.00,,,0.00,Wunderground v.1.15,2013-08-17 14:18:00,
2013-08-17 06:24:00,53.1,46.8,29.46,West,262,8.0,14.0,79,0.00,,,0.00,Wunderground v.1.15,2013-08-17 14:24:00,
2013-08-17 06:30:00,53.0,46.7,29.46,West,269,9.0,14.0,79,0.00,,,0.00,Wunderground v.1.15,2013-08-17 14:30:00,
2013-08-17 06:35:00,52.9,46.6,29.45,WNW,286,8.0,14.0,79,0.00,,,0.00,Wunderground v.1.15,2013-08-17 14:35:00,
2013-08-17 06:41:00,53.1,46.8,29.45,West,281,8.0,14.0,79,0.00,,,0.00,Wunderground v.1.15,2013-08-17 14:41:00,
2013-08-17 06:47:00,53.2,46.9,29.45,West,263,9.0,14.0,79,0.00,,,0.00,Wunderground v.1.15,2013-08-17 14:47:00,
2013-08-17 06:53:00,52.9,46.9,29.45,WNW,288,7.0,14.0,80,0.00,,,0.00,Wunderground v.1.15,2013-08-17 14:53:00,
2013-08-17 06:59:00,52.8,46.8,29.45,West,265,8.0,14.0,80,0.00,,,0.00,Wunderground v.1.15,2013-08-17 14:59:00,
2013-08-17 07:05:00,52.9,46.9,29.45,West,268,9.0,14.0,80,0.00,,,0.00,Wunderground v.1.15,2013-08-17 15:05:00,
2013-08-17 07:11:00,53.0,47.0,29.45,West,266,8.0,14.0,80,0.00,,,0.00,Wunderground v.1.15,2013-08-17 15:11:00,
2013-08-17 07:16:00,53.0,47.0,29.45,West,269,6.0,14.0,80,0.00,,,0.00,Wunderground v.1.15,2013-08-17 15:16:00,
2013-08-17 07:22:00,53.1,47.1,29.45,West,262,7.0,14.0,80,0.00,,,0.00,Wunderground v.1.15,2013-08-17 15:22:00,
2013-08-17 07:28:00,53.0,47.0,29.45,West,280,8.0,14.0,80,0.00,,,0.00,Wunderground v.1.15,2013-08-17 15:28:00,
2013-08-17 07:34:00,53.1,47.1,29.45,West,266,8.0,14.0,80,0.00,,,0.00,Wunderground v.1.15,2013-08-17 15:34:00,
2013-08-17 07:39:00,53.1,46.8,29.45,West,266,8.0,14.0,79,0.00,,,0.00,Wunderground v.1.15,2013-08-17 15:39:00,
2013-08-17 07:45:00,53.1,47.1,29.45,WNW,289,9.0,14.0,80,0.00,,,0.00,Wunderground v.1.15,2013-08-17 15:45:00,
2013-08-17 07:51:00,53.2,46.9,29.45,West,270,8.0,11.0,79,0.00,,,0.00,Wunderground v.1.15,2013-08-17 15:51:00,
2013-08-17 07:57:00,53.4,47.0,29.46,West,269,8.0,14.0,79,0.00,,,0.00,Wunderground v.1.15,2013-08-17 15:57:00,
2013-08-17 08:03:00,53.5,47.1,29.45,West,277,9.0,14.0,79,0.00,,,0.00,Wunderground v.1.15,2013-08-17 16:03:00,
2013-08-17 08:09:00,53.4,47.0,29.46,WSW,253,8.0,14.0,79,0.00,,,0.00,Wunderground v.1.15,2013-08-17 16:09:00,
2013-08-17 08:15:00,53.4,47.0,29.45,West,278,7.0,14.0,79,0.00,,,0.00,Wunderground v.1.15,2013-08-17 16:15:00,
2013-08-17 08:20:00,53.4,47.0,29.45,West,272,7.0,7.0,79,0.00,,,0.00,Wunderground v.1.15,2013-08-17 16:20:00,
2013-08-17 08:26:00,53.4,47.0,29.45,West,263,7.0,14.0,79,0.00,,,0.00,Wunderground v.1.15,2013-08-17 16:26:00,
2013-08-17 08:32:00,53.6,46.9,29.46,West,274,7.0,14.0,78,0.00,,,0.00,Wunderground v.1.15,2013-08-17 16:32:00,
2013-08-17 08:38:00,53.8,47.1,29.45,WNW,288,7.0,14.0,78,0.00,,,0.00,Wunderground v.1.15,2013-08-17 16:38:00,
2013-08-17 08:43:00,53.9,47.2,29.45,West,269,7.0,14.0,78,0.00,,,0.00,Wunderground v.1.15,2013-08-17 16:43:00,
2013-08-17 08:49:00,53.8,47.4,29.45,West,280,7.0,14.0,79,0.00,,,0.00,Wunderground v.1.15,2013-08-17 16:49:00,
2013-08-17 08:55:00,53.8,47.4,29.46,West,274,7.0,14.0,79,0.00,,,0.00,Wunderground v.1.15,2013-08-17 16:55:00,
2013-08-17 09:01:00,53.8,47.4,29.46,West,264,7.0,14.0,79,0.00,,,0.00,Wunderground v.1.15,2013-08-17 17:01:00,
2013-08-17 09:07:00,53.9,47.5,29.46,West,267,6.0,14.0,79,0.00,,,0.00,Wunderground v.1.15,2013-08-17 17:07:00,
2013-08-17 09:13:00,53.9,47.5,29.46,West,262,6.0,14.0,79,0.00,,,0.00,Wunderground v.1.15,2013-08-17 17:13:00,
2013-08-17 09:19:00,53.9,47.9,29.46,WNW,300,6.0,14.0,80,0.00,,,0.00,Wunderground v.1.15,2013-08-17 17:19:00,
2013-08-17 09:24:00,54.1,47.7,29.46,West,270,5.0,14.0,79,0.00,,,0.00,Wunderground v.1.15,2013-08-17 17:24:00,
2013-08-17 09:30:00,54.3,47.9,29.46,West,278,7.0,7.0,79,0.00,,,0.00,Wunderground v.1.15,2013-08-17 17:30:00,
2013-08-17 09:36:00,54.4,47.7,29.46,WNW,290,7.0,14.0,78,0.00,,,0.00,Wunderground v.1.15,2013-08-17 17:36:00,
2013-08-17 09:42:00,54.4,48.0,29.46,WNW,303,8.0,14.0,79,0.00,,,0.00,Wunderground v.1.15,2013-08-17 17:42:00,
2013-08-17 09:47:00,54.5,48.1,29.46,NW,304,6.0,14.0,79,0.00,,,0.00,Wunderground v.1.15,2013-08-17 17:47:00,
2013-08-17 09:53:00,54.6,48.2,29.46,NW,308,3.0,14.0,79,0.00,,,0.00,Wunderground v.1.15,2013-08-17 17:53:00,
2013-08-17 09:59:00,54.9,48.8,29.46,West,273,2.0,14.0,80,0.00,,,0.00,Wunderground v.1.15,2013-08-17 17:59:00,
2013-08-17 10:05:00,54.9,48.8,29.46,West,278,5.0,14.0,80,0.00,,,0.00,Wunderground v.1.15,2013-08-17 18:05:00,
2013-08-17 10:11:00,55.0,48.9,29.46,NW,311,6.0,14.0,80,0.00,,,0.00,Wunderground v.1.15,2013-08-17 18:11:00,
2013-08-17 10:17:00,55.2,48.8,29.46,WNW,293,4.0,14.0,79,0.00,,,0.00,Wunderground v.1.15,2013-08-17 18:17:00,
2013-08-17 10:23:00,55.4,49.0,29.46,NW,326,5.0,14.0,79,0.00,,,0.00,Wunderground v.1.15,2013-08-17 18:23:00,
2013-08-17 10:28:00,55.6,48.8,29.46,NW,316,4.0,14.0,78,0.00,,,0.00,Wunderground v.1.15,2013-08-17 18:28:00,
2013-08-17 10:34:00,55.8,49.0,29.46,NW,306,3.0,14.0,78,0.00,,,0.00,Wunderground v.1.15,2013-08-17 18:34:00,
2013-08-17 10:40:00,56.0,49.2,29.46,West,278,3.0,14.0,78,0.00,,,0.00,Wunderground v.1.15,2013-08-17 18:40:00,
2013-08-17 10:46:00,56.2,49.4,29.46,NW,323,3.0,14.0,78,0.00,,,0.00,Wunderground v.1.15,2013-08-17 18:46:00,
2013-08-17 10:52:00,56.5,49.4,29.46,West,278,4.0,9.0,77,0.00,,,0.00,Wunderground v.1.15,2013-08-17 18:52:00,
2013-08-17 10:58:00,56.7,49.9,29.45,West,278,6.0,14.0,78,0.00,,,0.00,Wunderground v.1.15,2013-08-17 18:58:00,
2013-08-17 11:03:00,57.1,49.6,29.45,West,265,5.0,14.0,76,0.00,,,0.00,Wunderground v.1.15,2013-08-17 19:03:00,
2013-08-17 11:09:00,57.4,49.9,29.46,WNW,293,4.0,14.0,76,0.00,,,0.00,Wunderground v.1.15,2013-08-17 19:09:00,
2013-08-17 11:15:00,57.2,49.0,29.45,WNW,288,5.0,14.0,74,0.00,,,0.00,Wunderground v.1.15,2013-08-17 19:15:00,
2013-08-17 11:21:00,57.3,49.4,29.45,WSW,256,7.0,14.0,75,0.00,,,0.00,Wunderground v.1.15,2013-08-17 19:21:00,
2013-08-17 11:26:00,57.4,49.9,29.45,West,264,6.0,14.0,76,0.00,,,0.00,Wunderground v.1.15,2013-08-17 19:26:00,
2013-08-17 11:32:00,57.8,50.3,29.45,WNW,301,4.0,14.0,76,0.00,,,0.00,Wunderground v.1.15,2013-08-17 19:32:00,
2013-08-17 11:38:00,57.6,50.1,29.45,West,267,4.0,14.0,76,0.00,,,0.00,Wunderground v.1.15,2013-08-17 19:38:00,
2013-08-17 11:43:00,57.8,50.3,29.45,NNW,330,5.0,14.0,76,0.00,,,0.00,Wunderground v.1.15,2013-08-17 19:43:00,
2013-08-17 11:49:00,57.8,49.6,29.45,WNW,283,4.0,14.0,74,0.00,,,0.00,Wunderground v.1.15,2013-08-17 19:49:00,
2013-08-17 11:55:00,58.1,49.9,29.45,West,277,4.0,14.0,74,0.00,,,0.00,Wunderground v.1.15,2013-08-17 19:55:00,
2013-08-17 12:01:00,58.6,50.7,29.45,WSW,257,3.0,14.0,75,0.00,,,0.00,Wunderground v.1.15,2013-08-17 20:01:00,
2013-08-17 12:06:00,59.1,51.2,29.46,WNW,290,2.0,14.0,75,0.00,,,0.00,Wunderground v.1.15,2013-08-17 20:06:00,
2013-08-17 12:12:00,59.5,50.8,29.46,NW,309,1.0,14.0,73,0.00,,,0.00,Wunderground v.1.15,2013-08-17 20:12:00,
2013-08-17 12:18:00,59.2,49.8,29.46,WNW,300,2.0,14.0,71,0.00,,,0.00,Wunderground v.1.15,2013-08-17 20:18:00,
2013-08-17 12:24:00,59.1,49.7,29.46,North,4,2.0,14.0,71,0.00,,,0.00,Wunderground v.1.15,2013-08-17 20:24:00,
2013-08-17 12:29:00,58.9,49.5,29.46,WNW,300,3.0,14.0,71,0.00,,,0.00,Wunderground v.1.15,2013-08-17 20:29:00,
2013-08-17 12:35:00,58.6,49.6,29.46,NW,304,3.0,14.0,72,0.00,,,0.00,Wunderground v.1.15,2013-08-17 20:35:00,
2013-08-17 12:41:00,58.4,49.8,29.46,North,354,2.0,14.0,73,0.00,,,0.00,Wunderground v.1.15,2013-08-17 20:41:00,
2013-08-17 12:47:00,58.2,50.0,29.46,WNW,298,2.0,14.0,74,0.00,,,0.00,Wunderground v.1.15,2013-08-17 20:47:00,
2013-08-17 12:53:00,57.9,50.0,29.46,West,273,3.0,14.0,75,0.00,,,0.00,Wunderground v.1.15,2013-08-17 20:53:00,
2013-08-17 12:59:00,57.8,50.3,29.46,WNW,298,3.0,14.0,76,0.00,,,0.00,Wunderground v.1.15,2013-08-17 20:59:00,
2013-08-17 13:05:00,57.9,50.4,29.46,West,276,2.0,14.0,76,0.00,,,0.00,Wunderground v.1.15,2013-08-17 21:05:00,
2013-08-17 13:10:00,57.9,50.0,29.46,NW,310,3.0,3.0,75,0.00,,,0.00,Wunderground v.1.15,2013-08-17 21:10:00,
2013-08-17 13:16:00,58.1,49.9,29.46,WNW,292,2.0,14.0,74,0.00,,,0.00,Wunderground v.1.15,2013-08-17 21:16:00,
2013-08-17 13:22:00,58.2,51.0,29.46,WNW,297,1.0,14.0,77,0.00,,,0.00,Wunderground v.1.15,2013-08-17 21:22:00,
2013-08-17 13:28:00,58.3,50.8,29.46,NW,311,1.0,14.0,76,0.00,,,0.00,Wunderground v.1.15,2013-08-17 21:28:00,
2013-08-17 13:33:00,58.3,51.1,29.46,NW,315,1.0,14.0,77,0.00,,,0.00,Wunderground v.1.15,2013-08-17 21:33:00,
2013-08-17 13:39:00,58.1,50.6,29.46,WNW,286,1.0,14.0,76,0.00,,,0.00,Wunderground v.1.15,2013-08-17 21:39:00,
2013-08-17 13:45:00,57.9,50.7,29.46,West,271,2.0,14.0,77,0.00,,,0.00,Wunderground v.1.15,2013-08-17 21:45:00,
2013-08-17 13:51:00,57.8,50.6,29.46,West,273,4.0,14.0,77,0.00,,,0.00,Wunderground v.1.15,2013-08-17 21:51:00,
2013-08-17 13:57:00,57.6,50.4,29.46,West,279,5.0,14.0,77,0.00,,,0.00,Wunderground v.1.15,2013-08-17 21:57:00,
2013-08-17 14:03:00,57.6,50.8,29.45,West,261,5.0,14.0,78,0.00,,,0.00,Wunderground v.1.15,2013-08-17 22:03:00,
2013-08-17 14:09:00,57.7,50.9,29.45,West,276,6.0,14.0,78,0.00,,,0.00,Wunderground v.1.15,2013-08-17 22:09:00,
2013-08-17 14:14:00,58.0,51.5,29.45,WNW,291,5.0,14.0,79,0.00,,,0.00,Wunderground v.1.15,2013-08-17 22:14:00,
2013-08-17 14:20:00,58.1,51.6,29.45,WNW,285,5.0,14.0,79,0.00,,,0.00,Wunderground v.1.15,2013-08-17 22:20:00,
2013-08-17 14:26:00,58.1,50.9,29.45,West,266,6.0,14.0,77,0.00,,,0.00,Wunderground v.1.15,2013-08-17 22:26:00,
2013-08-17 14:32:00,58.0,51.2,29.45,WNW,294,6.0,14.0,78,0.00,,,0.00,Wunderground v.1.15,2013-08-17 22:32:00,
2013-08-17 14:37:00,58.0,51.2,29.45,NW,304,5.0,14.0,78,0.00,,,0.00,Wunderground v.1.15,2013-08-17 22:37:00,
2013-08-17 14:43:00,58.2,51.4,29.45,West,276,4.0,14.0,78,0.00,,,0.00,Wunderground v.1.15,2013-08-17 22:43:00,
2013-08-17 14:49:00,58.4,51.9,29.45,WNW,301,2.0,14.0,79,0.00,,,0.00,Wunderground v.1.15,2013-08-17 22:49:00,
2013-08-17 14:55:00,58.2,51.0,29.45,WNW,298,3.0,14.0,77,0.00,,,0.00,Wunderground v.1.15,2013-08-17 22:55:00,
2013-08-17 15:01:00,58.0,50.8,29.45,West,270,4.0,14.0,77,0.00,,,0.00,Wunderground v.1.15,2013-08-17 23:01:00,
2013-08-17 15:07:00,57.8,51.0,29.45,WSW,256,6.0,14.0,78,0.00,,,0.00,Wunderground v.1.15,2013-08-17 23:07:00,
2013-08-17 15:13:00,57.7,50.5,29.45,West,277,8.0,14.0,77,0.00,,,0.00,Wunderground v.1.15,2013-08-17 23:13:00,
2013-08-17 15:18:00,57.8,51.0,29.45,West,280,9.0,14.0,78,0.00,,,0.00,Wunderground v.1.15,2013-08-17 23:18:00,
2013-08-17 15:24:00,57.7,51.2,29.45,West,270,8.0,14.0,79,0.00,,,0.00,Wunderground v.1.15,2013-08-17 23:24:00,
2013-08-17 15:30:00,57.8,51.0,29.45,West,281,7.0,14.0,78,0.00,,,0.00,Wunderground v.1.15,2013-08-17 23:30:00,
2013-08-17 15:36:00,58.0,51.5,29.45,WNW,298,7.0,14.0,79,0.00,,,0.00,Wunderground v.1.15,2013-08-17 23:36:00,
2013-08-17 15:41:00,58.2,51.4,29.44,West,280,7.0,14.0,78,0.00,,,0.00,Wunderground v.1.15,2013-08-17 23:41:00,
2013-08-17 15:47:00,58.3,51.5,29.44,West,268,7.0,14.0,78,0.00,,,0.00,Wunderground v.1.15,2013-08-17 23:47:00,
2013-08-17 15:53:00,58.5,51.7,29.44,NW,311,6.0,14.0,78,0.00,,,0.00,Wunderground v.1.15,2013-08-17 23:53:00,
2013-08-17 15:59:00,58.7,52.2,29.44,WNW,286,5.0,14.0,79,0.00,,,0.00,Wunderground v.1.15,2013-08-17 23:59:00,
2013-08-17 16:05:00,58.8,52.0,29.44,WNW,298,3.0,14.0,78,0.00,,,0.00,Wunderground v.1.15,2013-08-18 00:05:00,
2013-08-17 16:11:00,59.0,52.5,29.44,WNW,285,3.0,4.0,79,0.00,,,0.00,Wunderground v.1.15,2013-08-18 00:11:00,
2013-08-17 16:17:00,59.3,52.4,29.44,WNW,297,2.0,14.0,78,0.00,,,0.00,Wunderground v.1.15,2013-08-18 00:17:00,
2013-08-17 16:22:00,59.2,52.0,29.44,NW,318,3.0,14.0,77,0.00,,,0.00,Wunderground v.1.15,2013-08-18 00:22:00,
2013-08-17 16:28:00,59.3,52.4,29.44,North,349,3.0,14.0,78,0.00,,,0.00,Wunderground v.1.15,2013-08-18 00:28:00,
2013-08-17 16:34:00,59.2,53.4,29.44,NNW,342,3.0,14.0,81,0.00,,,0.00,Wunderground v.1.15,2013-08-18 00:34:00,
2013-08-17 16:40:00,58.7,53.5,29.44,NNW,345,3.0,14.0,83,0.00,,,0.00,Wunderground v.1.15,2013-08-18 00:40:00,
2013-08-17 16:45:00,58.5,53.0,29.44,NNW,328,2.0,14.0,82,0.00,,,0.00,Wunderground v.1.15,2013-08-18 00:45:00,
2013-08-17 16:51:00,58.4,52.6,29.43,West,281,2.0,14.0,81,0.00,,,0.00,Wunderground v.1.15,2013-08-18 00:51:00,
2013-08-17 16:57:00,58.5,52.4,29.43,WNW,289,2.0,14.0,80,0.00,,,0.00,Wunderground v.1.15,2013-08-18 00:57:00,
2013-08-17 17:03:00,58.5,51.7,29.43,WNW,286,5.0,14.0,78,0.00,,,0.00,Wunderground v.1.15,2013-08-18 01:03:00,
2013-08-17 17:09:00,58.5,51.7,29.43,WNW,292,5.0,14.0,78,0.00,,,0.00,Wunderground v.1.15,2013-08-18 01:09:00,
2013-08-17 17:15:00,58.5,51.3,29.43,WNW,294,5.0,14.0,77,0.00,,,0.00,Wunderground v.1.15,2013-08-18 01:15:00,
2013-08-17 17:21:00,58.6,51.4,29.43,WNW,298,5.0,14.0,77,0.00,,,0.00,Wunderground v.1.15,2013-08-18 01:21:00,
2013-08-17 17:26:00,58.6,51.1,29.43,West,277,5.0,14.0,76,0.00,,,0.00,Wunderground v.1.15,2013-08-18 01:26:00,
2013-08-17 17:32:00,58.7,50.8,29.43,WSW,248,5.0,14.0,75,0.00,,,0.00,Wunderground v.1.15,2013-08-18 01:32:00,
2013-08-17 17:38:00,58.6,51.1,29.43,West,278,4.0,14.0,76,0.00,,,0.00,Wunderground v.1.15,2013-08-18 01:38:00,
2013-08-17 17:44:00,58.5,51.0,29.43,West,280,5.0,14.0,76,0.00,,,0.00,Wunderground v.1.15,2013-08-18 01:44:00,
2013-08-17 17:49:00,58.5,51.0,29.43,NW,304,5.0,14.0,76,0.00,,,0.00,Wunderground v.1.15,2013-08-18 01:49:00,
2013-08-17 17:55:00,58.5,51.0,29.43,WNW,292,5.0,14.0,76,0.00,,,0.00,Wunderground v.1.15,2013-08-18 01:55:00,
2013-08-17 18:01:00,58.6,50.7,29.43,WNW,294,2.0,14.0,75,0.00,,,0.00,Wunderground v.1.15,2013-08-18 02:01:00,
2013-08-17 18:07:00,58.6,50.7,29.43,NNW,329,2.0,14.0,75,0.00,,,0.00,Wunderground v.1.15,2013-08-18 02:07:00,
2013-08-17 18:13:00,58.5,50.6,29.43,NW,311,2.0,14.0,75,0.00,,,0.00,Wunderground v.1.15,2013-08-18 02:13:00,
2013-08-17 18:19:00,58.4,50.5,29.43,NNW,335,2.0,14.0,75,0.00,,,0.00,Wunderground v.1.15,2013-08-18 02:19:00,
2013-08-17 18:25:00,58.4,50.5,29.43,NW,324,2.0,14.0,75,0.00,,,0.00,Wunderground v.1.15,2013-08-18 02:25:00,
2013-08-17 18:30:00,58.5,50.6,29.43,WNW,303,2.0,2.0,75,0.00,,,0.00,Wunderground v.1.15,2013-08-18 02:30:00,
2013-08-17 18:36:00,58.7,51.2,29.43,NW,326,1.0,14.0,76,0.00,,,0.00,Wunderground v.1.15,2013-08-18 02:36:00,
2013-08-17 18:42:00,58.9,51.0,29.42,NW,324,0.0,14.0,75,0.00,,,0.00,Wunderground v.1.15,2013-08-18 02:42:00,
2013-08-17 18:48:00,59.1,51.2,29.42,WNW,284,0.0,14.0,75,0.00,,,0.00,Wunderground v.1.15,2013-08-18 02:48:00,
2013-08-17 18:53:00,59.6,52.0,29.42,West,281,1.0,14.0,76,0.00,,,0.00,Wunderground v.1.15,2013-08-18 02:53:00,
2013-08-17 18:59:00,60.6,51.9,29.42,West,269,1.0,14.0,73,0.00,,,0.00,Wunderground v.1.15,2013-08-18 02:59:00,
2013-08-17 19:05:00,61.3,52.2,29.42,NNW,328,1.0,14.0,72,0.00,,,0.00,Wunderground v.1.15,2013-08-18 03:05:00,
2013-08-17 19:11:00,61.2,52.1,29.42,East,88,2.0,14.0,72,0.00,,,0.00,Wunderground v.1.15,2013-08-18 03:11:00,
2013-08-17 19:17:00,60.4,52.1,29.42,NE,52,2.0,14.0,74,0.00,,,0.00,Wunderground v.1.15,2013-08-18 03:17:00,
2013-08-17 19:23:00,60.0,52.8,29.42,ENE,70,2.0,14.0,77,0.00,,,0.00,Wunderground v.1.15,2013-08-18 03:23:00,
2013-08-17 19:29:00,59.2,52.7,29.42,North,9,1.0,14.0,79,0.00,,,0.00,Wunderground v.1.15,2013-08-18 03:29:00,
2013-08-17 19:34:00,58.8,52.6,29.42,North,10,2.0,14.0,80,0.00,,,0.00,Wunderground v.1.15,2013-08-18 03:34:00,
2013-08-17 19:40:00,58.7,52.9,29.42,SE,124,1.0,1.0,81,0.00,,,0.00,Wunderground v.1.15,2013-08-18 03:40:00,
2013-08-17 19:46:00,58.7,52.2,29.42,North,3,1.0,14.0,79,0.00,,,0.00,Wunderground v.1.15,2013-08-18 03:46:00,
2013-08-17 19:52:00,58.7,52.2,29.42,NNE,30,1.0,14.0,79,0.00,,,0.00,Wunderground v.1.15,2013-08-18 03:52:00,
2013-08-17 19:57:00,58.8,53.3,29.42,ESE,113,1.0,14.0,82,0.00,,,0.00,Wunderground v.1.15,2013-08-18 03:57:00,
2013-08-17 20:01:00,58.7,52.9,29.42,ESE,114,0.0,14.0,81,0.00,,,0.00,Wunderground v.1.15,2013-08-18 04:01:00,
2013-08-17 20:03:00,58.7,52.5,29.42,ESE,114,0.0,14.0,80,0.00,,,0.00,Wunderground v.1.15,2013-08-18 04:03:00,
2013-08-17 20:04:00,58.7,52.5,29.42,ESE,111,0.0,14.0,80,0.00,,,0.00,Wunderground v.1.15,2013-08-18 04:04:00,
2013-08-17 20:05:00,58.7,52.5,29.42,ESE,111,0.0,14.0,80,0.00,,,0.00,Wunderground v.1.15,2013-08-18 04:05:00,
2013-08-17 20:11:00,58.7,52.9,29.42,ESE,111,0.0,14.0,81,0.00,,,0.00,Wunderground v.1.15,2013-08-18 04:11:00,
2013-08-17 20:16:00,58.7,52.9,29.42,SE,134,1.0,14.0,81,0.00,,,0.00,Wunderground v.1.15,2013-08-18 04:16:00,
2013-08-17 20:22:00,58.5,52.7,29.42,ESE,103,1.0,14.0,81,0.00,,,0.00,Wunderground v.1.15,2013-08-18 04:22:00,
2013-08-17 20:28:00,58.6,52.8,29.42,West,273,1.0,14.0,81,0.00,,,0.00,Wunderground v.1.15,2013-08-18 04:28:00,
2013-08-17 20:34:00,58.2,52.7,29.42,ENE,68,2.0,14.0,82,0.00,,,0.00,Wunderground v.1.15,2013-08-18 04:34:00,
2013-08-17 20:39:00,57.7,51.9,29.42,East,96,3.0,14.0,81,0.00,,,0.00,Wunderground v.1.15,2013-08-18 04:39:00,
2013-08-17 20:45:00,57.4,52.3,29.42,East,94,1.0,14.0,83,0.00,,,0.00,Wunderground v.1.15,2013-08-18 04:45:00,
2013-08-17 20:51:00,57.2,52.1,29.42,East,101,1.0,14.0,83,0.00,,,0.00,Wunderground v.1.15,2013-08-18 04:51:00,
2013-08-17 20:57:00,56.9,52.1,29.42,ESE,114,1.0,14.0,84,0.00,,,0.00,Wunderground v.1.15,2013-08-18 04:57:00,
2013-08-17 21:02:00,56.7,51.9,29.42,SE,127,1.0,14.0,84,0.00,,,0.00,Wunderground v.1.15,2013-08-18 05:02:00,
2013-08-17 21:08:00,56.4,51.9,29.42,SSE,165,1.0,14.0,85,0.00,,,0.00,Wunderground v.1.15,2013-08-18 05:08:00,
2013-08-17 21:14:00,56.1,51.7,29.42,SSW,204,2.0,14.0,85,0.00,,,0.00,Wunderground v.1.15,2013-08-18 05:14:00,
2013-08-17 21:19:00,56.0,51.2,29.42,South,178,2.0,14.0,84,0.00,,,0.00,Wunderground v.1.15,2013-08-18 05:19:00,
2013-08-17 21:25:00,56.0,51.2,29.42,SSW,208,1.0,14.0,84,0.00,,,0.00,Wunderground v.1.15,2013-08-18 05:25:00,
2013-08-17 21:31:00,56.3,51.5,29.42,SSW,208,0.0,14.0,84,0.00,,,0.00,Wunderground v.1.15,2013-08-18 05:31:00,
2013-08-17 21:37:00,56.3,51.5,29.42,SSW,209,0.0,14.0,84,0.00,,,0.00,Wunderground v.1.15,2013-08-18 05:37:00,
2013-08-17 21:42:00,56.3,51.8,29.42,SSE,165,0.0,14.0,85,0.00,,,0.00,Wunderground v.1.15,2013-08-18 05:42:00,
2013-08-17 21:48:00,56.2,51.4,29.42,SE,125,0.0,14.0,84,0.00,,,0.00,Wunderground v.1.15,2013-08-18 05:48:00,
2013-08-17 21:54:00,55.9,50.8,29.42,SE,125,0.0,14.0,83,0.00,,,0.00,Wunderground v.1.15,2013-08-18 05:54:00,
2013-08-17 22:00:00,55.8,50.7,29.42,SSE,155,0.0,14.0,83,0.00,,,0.00,Wunderground v.1.15,2013-08-18 06:00:00,
2013-08-17 22:05:00,55.6,50.8,29.42,SSW,212,1.0,14.0,84,0.00,,,0.00,Wunderground v.1.15,2013-08-18 06:05:00,
2013-08-17 22:11:00,55.6,51.2,29.42,SSW,213,1.0,14.0,85,0.00,,,0.00,Wunderground v.1.15,2013-08-18 06:11:00,
2013-08-17 22:17:00,55.7,50.9,29.42,SSW,202,1.0,14.0,84,0.00,,,0.00,Wunderground v.1.15,2013-08-18 06:17:00,
2013-08-17 22:23:00,55.6,50.8,29.42,South,191,1.0,14.0,84,0.00,,,0.00,Wunderground v.1.15,2013-08-18 06:23:00,
2013-08-17 22:29:00,55.2,50.8,29.42,SSW,192,1.0,14.0,85,0.00,,,0.00,Wunderground v.1.15,2013-08-18 06:29:00,
2013-08-17 22:35:00,55.4,50.6,29.42,South,191,2.0,14.0,84,0.00,,,0.00,Wunderground v.1.15,2013-08-18 06:35:00,
2013-08-17 22:41:00,55.8,50.7,29.42,WSW,253,2.0,14.0,83,0.00,,,0.00,Wunderground v.1.15,2013-08-18 06:41:00,
2013-08-17 22:47:00,55.7,50.9,29.42,WSW,253,2.0,14.0,84,0.00,,,0.00,Wunderground v.1.15,2013-08-18 06:47:00,
2013-08-17 22:52:00,55.7,50.9,29.42,WSW,244,2.0,14.0,84,0.00,,,0.00,Wunderground v.1.15,2013-08-18 06:52:00,
2013-08-17 22:58:00,55.6,50.8,29.42,West,259,1.0,14.0,84,0.00,,,0.00,Wunderground v.1.15,2013-08-18 06:58:00,
2013-08-17 23:04:00,55.6,50.8,29.42,SW,230,0.0,14.0,84,0.00,,,0.00,Wunderground v.1.15,2013-08-18 07:04:00,
2013-08-17 23:10:00,55.5,50.7,29.42,SW,230,1.0,1.0,84,0.00,,,0.00,Wunderground v.1.15,2013-08-18 07:10:00,
2013-08-17 23:16:00,55.4,50.6,29.42,NNE,20,1.0,14.0,84,0.00,,,0.00,Wunderground v.1.15,2013-08-18 07:16:00,
2013-08-17 23:22:00,55.2,50.8,29.42,NNE,30,1.0,14.0,85,0.00,,,0.00,Wunderground v.1.15,2013-08-18 07:22:00,
2013-08-17 23:28:00,54.8,50.4,29.42,NNE,30,0.0,14.0,85,0.00,,,0.00,Wunderground v.1.15,2013-08-18 07:28:00,
2013-08-17 23:33:00,54.4,50.3,29.42,NNE,32,0.0,14.0,86,0.00,,,0.00,Wunderground v.1.15,2013-08-18 07:33:00,
2013-08-17 23:39:00,54.2,50.4,29.42,NNE,25,0.0,14.0,87,0.00,,,0.00,Wunderground v.1.15,2013-08-18 07:39:00,
2013-08-17 23:45:00,54.1,50.3,29.42,West,270,0.0,14.0,87,0.00,,,0.00,Wunderground v.1.15,2013-08-18 07:45:00,
2013-08-17 23:50:00,54.5,50.7,29.41,WNW,289,2.0,14.0,87,0.00,,,0.00,Wunderground v.1.15,2013-08-18 07:50:00,
2013-08-17 23:56:00,54.6,50.5,29.41,West,280,3.0,14.0,86,0.00,,,0.00,Wunderground v.1.15,2013-08-18 07:56:00,